Weather History for KGTF - October, 2011

Change the Weather History Date:

Saturday, October 29, 2011

  Actual Average Record
Temperature  
Mean Temperature 43 °F 40 °F  
Max Temperature 54 °F 52 °F 77 °F (1968)
Min Temperature 32 °F 29 °F -5 °F (1991)
Degree Days  
Heating Degree Days 22 24  
Month to date heating degree days 480 563  
Since 1 July heating degree days 656 970  
Cooling Degree Days 0 0  
Month to date cooling degree days 0 0  
Year to date cooling degree days 365 297  
Moisture  
Dew Point 23 °F    
Average Humidity 42    
Maximum Humidity 64    
Minimum Humidity 19    
Precipitation  
Precipitation 0.00 in 0.02 in 0.31 in (1959)
Month to date precipitation 2.24 0.82  
Year to date precipitation 15.85 13.57  
Snow  
Snow 0.00 in 0.10 in 3.30 in (1951)
Month to date snowfall 0.1 3.7  
Since 1 July snowfall 0.1 5.2  
Since 1 September snowfall 0.1 4.9  
Snow Depth 0.00 in    
Sea Level Pressure  
Sea Level Pressure 29.96 in    
Wind  
Wind Speed 19 mph (WSW)    
Max Wind Speed 35 mph    
Max Gust Speed 43 mph    
Visibility 10 miles    
Events      
T = Trace of Precipitation, MM = Missing Value Source: NWS Daily Summary

Daily Weather History Graph

Daily Weather History Graph

Search for Another Location

Airport or City:

Trip Planner

Search our weather history database for the weather conditions in past years. The results will help you decide how hot, cold, wet, or windy it might be!

Date:

Astronomy

Oct. 29, 2011 Rise Set
Actual Time 8:04 AM MDT 6:13 PM MDT
Civil Twilight 7:32 AM MDT 6:45 PM MDT
Nautical Twilight 6:56 AM MDT 7:21 PM MDT
Astronomical Twilight 6:20 AM MDT 7:56 PM MDT
Moon 11:44 AM MDT (10/29) 8:26 PM MDT (10/29)
Length of Visible Light 11h 12m
Length of Day
10h 08m
Waxing Crescent, 12% of the Moon is Illuminated
Oct 29
Waxing Crescent
Nov 2
First Quarter
Nov 10
Full
Nov 18
Last Quarter
Nov 24
New

Hourly Weather History & Observations

Time (MDT) Temp. Windchill Dew Point Humidity Pressure Visibility Wind Dir Wind Speed Gust Speed Precip Events Conditions
12:53 AM 52.0 °F - 10.9 °F 19% 29.73 in 10.0 mi SW 20.7 mph 29.9 mph N/A   Clear
1:53 AM 50.0 °F - 21.9 °F 33% 29.78 in 10.0 mi WSW 28.8 mph 35.7 mph N/A   Clear
2:53 AM 46.9 °F - 25.0 °F 42% 29.78 in 10.0 mi WSW 25.3 mph 35.7 mph N/A   Clear
3:53 AM 46.4 °F 37.2 °F 26.6 °F 46% 29.73 in 10.0 mi WSW 29.9 mph 38.0 mph N/A   Clear
4:53 AM 45.0 °F 36.6 °F 28.9 °F 53% 29.77 in 10.0 mi SW 21.9 mph - N/A   Clear
5:53 AM 44.1 °F 35.9 °F 30.9 °F 60% 29.78 in 10.0 mi SW 19.6 mph 27.6 mph N/A   Clear
6:53 AM 42.1 °F 34.5 °F 30.0 °F 62% 29.81 in 10.0 mi SW 15.0 mph - N/A   Clear
7:53 AM 42.1 °F 33.6 °F 30.0 °F 62% 29.86 in 10.0 mi WSW 18.4 mph - N/A   Clear
8:50 AM 41.0 °F 33.5 °F 28.4 °F 61% 29.88 in 10.0 mi WNW 13.8 mph - N/A   Mostly Cloudy
8:53 AM 41.0 °F 33.1 °F 28.0 °F 60% 29.92 in 10.0 mi WNW 15.0 mph - N/A   Mostly Cloudy
9:53 AM 44.1 °F 37.7 °F 28.9 °F 55% 29.95 in 10.0 mi WSW 12.7 mph - N/A   Clear
10:53 AM 48.9 °F - 27.0 °F 43% 29.96 in 10.0 mi West 23.0 mph 31.1 mph N/A   Clear
11:53 AM 50.0 °F - 21.0 °F 32% 29.97 in 10.0 mi West 29.9 mph 36.8 mph N/A   Clear
12:53 PM 51.1 °F - 19.0 °F 28% 30.00 in 10.0 mi West 24.2 mph 36.8 mph N/A   Clear
1:53 PM 52.0 °F - 17.1 °F 25% 30.01 in 10.0 mi WNW 24.2 mph 31.1 mph N/A   Clear
2:53 PM 52.0 °F - 16.0 °F 24% 30.03 in 10.0 mi WNW 21.9 mph 29.9 mph N/A   Partly Cloudy
3:53 PM 52.0 °F - 19.0 °F 27% 30.06 in 10.0 mi West 23.0 mph 28.8 mph N/A   Mostly Cloudy
4:53 PM 50.0 °F - 17.6 °F 28% 30.05 in 10.0 mi West 23.0 mph 29.9 mph N/A   Partly Cloudy
5:53 PM 44.6 °F 37.8 °F 19.4 °F 37% 30.07 in 10.0 mi WSW 15.0 mph - N/A   Clear
6:53 PM 41.0 °F 34.3 °F 19.0 °F 41% 30.13 in 10.0 mi West 11.5 mph - N/A   Clear
7:53 PM 39.0 °F 32.3 °F 18.0 °F 43% 30.14 in 10.0 mi SW 10.4 mph - N/A   Clear
8:53 PM 33.1 °F 25.5 °F 19.0 °F 56% 30.16 in 10.0 mi SW 9.2 mph - N/A   Clear
9:53 PM 37.0 °F 29.3 °F 21.9 °F 54% 30.14 in 10.0 mi SW 11.5 mph - N/A   Clear
10:53 PM 34.0 °F 26.0 °F 23.0 °F 64% 30.15 in 10.0 mi SW 10.4 mph - N/A   Clear
11:53 PM 34.0 °F 26.0 °F 23.0 °F 64% 30.15 in 10.0 mi SW 10.4 mph - N/A   Clear